Probability
0 0 3 3 0 0 0 0 0 0 0 0 0 0 0 0 0 0 0 0 0 0 3 3 6 6 6 6 10 10 10 3 3 3 3 3 0 0 0 0 0 0 0
0 0 0 3 3 3 0 0 0 0 0 0 0 0 0 0 0 0 0 0 0 0 3 3 3 0 6 6 6 10 10 6 3 0 3 3 0 0 0 0 0 0 0
0 0 0 0 3 3 0 0 0 0 0 0 0 0 0 0 0 0 0 0 0 0 0 3 3 3 6 10 6 6 10 10 6 0 0 0 0 0 0 0 0 0 0
0 0 0 0 0 3 0 0 0 0 0 0 0 0 0 0 0 0 0 0 0 0 0 0 3 3 3 6 3 6 6 6 6 3 0 0 0 0 0 0 0 0 0
0 0 0 0 0 0 0 0 0 0 0 0 0 0 0 0 0 0 0 0 0 0 0 0 0 0 3 3 3 3 3 6 6 3 0 3 0 0 0 0 0 0 0
0 0 0 0 0 0 0 0 0 0 0 0 0 0 0 0 0 0 0 0 0 0 0 0 0 0 0 0 0 3 3 3 3 3 3 3 0 0 0 0 0 0 0
0 0 0 0 0 0 0 0 0 0 0 0 0 0 0 0 0 0 0 0 0 0 0 0 0 0 0 0 0 0 3 3 3 3 3 0 0 0 0 0 0 0 0
0 0 0 0 0 0 0 0 0 0 0 0 0 0 0 0 0 0 0 0 0 0 0 0 0 0 0 0 0 0 0 3 3 3 3 0 0 0 0 0 0 0 0
0 0 0 0 0 0 0 0 0 0 0 0 0 0 0 0 0 0 0 0 0 0 0 0 0 0 0 0 0 0 0 0 3 3 3 0 0 0 0 0 0 0 0
0 0 0 0 0 0 0 0 0 0 0 0 0 0 0 0 0 0 0 0 0 0 0 0 0 0 0 0 0 0 0 0 0 3 3 0 0 0 0 0 0 0 0
0 0 0 0 0 0 0 0 0 0 0 0 0 0 0 0 0 0 0 0 0 0 0 0 0 0 0 0 0 0 0 0 0 0 0 0 0 0 0 0 0 0 0
0 0 0 0 0 0 0 0 0 0 0 0 0 0 0 0 0 0 0 0 0 0 0 0 0 0 0 0 0 0 0 0 0 0 0 0 0 0 0 0 0 0 0
0 0 0 0 0 0 0 0 0 0 0 0 0 0 0 0 0 0 0 0 0 0 0 0 0 0 0 0 0 0 0 0 0 0 0 0 0 0 0 0 0 0 0
0 0 0 0 0 0 0 0 0 0 0 0 0 0 0 0 0 0 0 0 0 0 0 0 0 0 0 0 0 0 0 0 0 0 0 0 0 0 0 0 0 0 0
0 0 0 0 0 0 0 0 0 0 0 0 0 0 0 0 0 0 0 0 0 0 0 0 0 0 0 0 0 0 0 0 0 0 0 0 0 0 0 0 0 0 0
0 0 0 0 0 0 0 0 0 0 0 0 0 0 0 0 0 0 0 0 0 0 0 0 0 0 0 0 0 0 0 0 0 0 0 0 0 0 0 0 0 0 0
0 0 0 0 0 0 0 0 0 0 0 0 0 0 0 0 0 0 0 0 0 0 0 0 0 0 0 0 0 0 0 0 0 0 0 0 0 0 0 0 0 0 0
0 0 0 0 0 0 0 0 0 0 0 0 0 0 0 0 0 0 0 0 0 0 0 0 0 0 0 0 0 0 0 0 0 0 0 0 0 0 0 0 0 0 0
0 0 0 0 0 0 0 0 0 0 0 0 0 0 0 0 0 0 0 0 0 0 0 0 0 0 0 0 0 0 0 0 0 0 0 0 0 0 0 0 0 0 0
0 0 0 0 0 0 0 0 0 0 0 0 0 0 0 0 0 0 0 0 0 0 0 0 0 0 0 0 0 0 0 0 0 0 0 0 0 0 0 0 0 0 0
0 0 0 0 0 0 0 0 0 0 0 0 0 0 0 0 0 0 0 0 0 0 0 0 0 0 0 0 0 0 0 0 0 0 0 0 0 0 0 0 0 0 0
0 0 0 0 0 0 0 0 0 0 0 0 0 0 0 0 0 0 0 0 0 0 0 0 0 0 0 0 0 0 0 0 0 0 0 0 0 0 0 0 0 0 0
0 0 0 0 0 0 0 0 0 0 0 0 0 0 0 0 0 0 0 0 0 0 0 0 0 0 0 0 0 0 0 0 0 0 0 0 0 0 0 0 0 0 0
0 0 0 0 0 0 0 0 0 0 0 0 0 0 0 0 0 0 0 0 0 0 0 0 0 0 0 0 0 0 0 0 0 0 0 0 0 0 0 0 0 0 0
0 0 0 0 0 0 0 0 0 0 0 0 0 0 0 0 0 0 0 0 0 0 0 0 0 0 0 0 0 0 0 0 0 0 0 0 0 0 0 0 0 0 0
0 0 0 0 0 0 0 0 0 0 0 0 0 0 0 0 0 0 0 0 0 0 0 0 0 0 0 0 0 0 0 0 0 0 0 0 0 0 0 0 0 0 0
Height
5779 5780 5782 5783 5784 5784 5785 5786 5787 5788 5788 5789 5789 5790 5790 5790 5791 5791 5790 5790 5791 5790 5790 5790 5790 5790 5790 5789 5788 5787 5787 5786 5785 5783 5782 5780 5779 5777 5775 5773 5772 5770 5768
5769 5771 5772 5773 5774 5775 5776 5777 5778 5779 5779 5780 5781 5781 5781 5781 5782 5782 5782 5782 5782 5782 5782 5782 5782 5782 5782 5781 5781 5780 5779 5778 5777 5776 5774 5773 5771 5770 5768 5766 5764 5762 5760
5760 5761 5763 5764 5765 5766 5767 5768 5769 5770 5771 5771 5772 5772 5772 5772 5772 5773 5773 5773 5773 5773 5774 5774 5774 5774 5773 5773 5773 5772 5771 5770 5769 5768 5766 5765 5764 5762 5760 5758 5756 5754 5752
5750 5751 5753 5754 5755 5757 5757 5758 5760 5761 5761 5762 5762 5762 5762 5762 5762 5762 5763 5763 5763 5764 5765 5765 5765 5765 5765 5765 5764 5764 5763 5762 5761 5760 5758 5757 5755 5754 5752 5750 5748 5746 5744
5739 5740 5742 5743 5745 5747 5748 5749 5750 5751 5752 5752 5753 5752 5752 5752 5752 5752 5752 5753 5753 5754 5755 5756 5756 5756 5756 5756 5755 5755 5754 5753 5752 5751 5750 5748 5747 5745 5743 5741 5739 5737 5735
5729 5730 5732 5733 5735 5737 5738 5739 5740 5741 5741 5742 5742 5742 5742 5741 5741 5741 5741 5742 5743 5744 5745 5746 5746 5746 5746 5747 5746 5746 5745 5744 5743 5742 5741 5739 5738 5736 5734 5732 5730 5728 5726
5719 5720 5722 5723 5724 5726 5727 5728 5729 5730 5731 5731 5731 5732 5732 5731 5730 5730 5731 5732 5732 5733 5734 5735 5736 5736 5737 5737 5737 5737 5736 5735 5734 5733 5732 5730 5728 5727 5725 5723 5721 5719 5717
5709 5710 5712 5713 5714 5715 5716 5717 5718 5719 5720 5720 5721 5721 5722 5723 5721 5721 5721 5722 5722 5723 5723 5724 5725 5726 5727 5727 5727 5727 5727 5726 5725 5724 5722 5721 5719 5718 5716 5714 5712 5710 5708
5700 5700 5701 5702 5703 5704 5705 5706 5707 5708 5709 5710 5710 5710 5711 5712 5712 5713 5712 5712 5712 5712 5713 5713 5714 5715 5716 5717 5718 5717 5717 5716 5716 5714 5713 5712 5710 5708 5707 5705 5703 5701 5699
5689 5689 5691 5691 5692 5693 5694 5695 5696 5697 5698 5699 5700 5699 5700 5700 5702 5703 5703 5703 5703 5702 5701 5702 5703 5705 5706 5707 5707 5708 5707 5707 5706 5705 5704 5702 5701 5699 5697 5695 5693 5691 5689
5678 5678 5680 5681 5682 5683 5683 5684 5685 5686 5687 5688 5689 5690 5690 5690 5691 5692 5693 5694 5693 5692 5691 5692 5693 5695 5696 5697 5697 5698 5697 5697 5696 5695 5694 5693 5691 5690 5688 5686 5684 5682 5680
5668 5668 5670 5671 5672 5673 5673 5673 5674 5675 5677 5678 5679 5680 5680 5681 5681 5682 5683 5683 5683 5682 5682 5682 5684 5685 5686 5687 5688 5688 5687 5687 5686 5685 5684 5683 5682 5680 5678 5676 5675 5672 5670
5658 5659 5660 5661 5662 5662 5663 5663 5664 5665 5667 5668 5669 5670 5671 5671 5672 5672 5672 5672 5673 5673 5674 5674 5675 5676 5677 5677 5677 5677 5677 5677 5676 5675 5674 5673 5672 5670 5668 5667 5665 5663 5660
5649 5649 5651 5652 5652 5652 5652 5653 5654 5655 5657 5658 5659 5661 5661 5662 5662 5662 5663 5663 5664 5665 5666 5666 5666 5666 5667 5667 5667 5667 5667 5667 5666 5665 5664 5663 5662 5660 5658 5656 5655 5653 5650
5640 5640 5641 5642 5642 5643 5643 5643 5644 5645 5646 5648 5649 5651 5652 5652 5653 5653 5654 5655 5656 5656 5657 5657 5657 5657 5657 5657 5657 5657 5657 5656 5655 5655 5654 5653 5651 5650 5648 5646 5644 5642 5640
5630 5631 5631 5632 5632 5633 5632 5633 5634 5635 5636 5638 5640 5641 5642 5643 5644 5645 5645 5646 5646 5647 5648 5648 5648 5648 5647 5647 5647 5647 5647 5646 5645 5644 5643 5642 5641 5639 5637 5635 5633 5632 5630
5620 5621 5622 5622 5623 5622 5622 5623 5624 5625 5627 5629 5630 5632 5633 5634 5635 5636 5636 5637 5637 5638 5638 5639 5639 5638 5638 5638 5638 5637 5636 5636 5635 5634 5633 5632 5631 5629 5627 5625 5624 5622 5620
5611 5611 5612 5612 5613 5613 5613 5613 5614 5615 5617 5619 5621 5622 5623 5624 5626 5626 5627 5628 5628 5629 5629 5630 5630 5630 5629 5629 5628 5628 5627 5626 5626 5625 5624 5622 5621 5619 5618 5616 5614 5612 5610
5602 5602 5602 5603 5603 5603 5603 5604 5605 5606 5608 5609 5611 5613 5614 5615 5616 5617 5618 5619 5619 5620 5620 5621 5621 5621 5620 5620 5619 5619 5618 5617 5617 5616 5615 5613 5611 5610 5608 5606 5604 5603 5601
5593 5593 5593 5593 5593 5593 5594 5594 5595 5597 5598 5600 5602 5604 5605 5606 5607 5608 5609 5610 5611 5612 5612 5612 5612 5612 5612 5611 5610 5610 5610 5609 5608 5607 5605 5603 5602 5600 5598 5597 5595 5593 5591
5585 5584 5584 5584 5584 5584 5584 5585 5586 5588 5590 5591 5593 5595 5596 5597 5598 5599 5600 5601 5602 5603 5603 5603 5603 5603 5603 5602 5601 5601 5600 5600 5599 5598 5596 5594 5592 5591 5589 5587 5586 5584 5582
5576 5576 5575 5575 5575 5575 5576 5576 5577 5579 5581 5583 5584 5586 5587 5588 5589 5590 5591 5592 5593 5594 5594 5594 5594 5594 5593 5593 5592 5592 5592 5592 5591 5590 5588 5586 5584 5582 5581 5579 5576 5574 5572
5568 5567 5567 5566 5566 5566 5567 5568 5569 5570 5572 5574 5576 5577 5579 5580 5581 5582 5582 5583 5584 5584 5585 5585 5585 5585 5584 5584 5584 5584 5583 5582 5582 5580 5580 5578 5576 5574 5572 5569 5567 5565 5564
5560 5559 5559 5558 5558 5558 5558 5560 5561 5563 5564 5566 5568 5569 5570 5571 5572 5573 5574 5575 5575 5575 5576 5576 5576 5576 5575 5575 5575 5575 5574 5574 5573 5572 5570 5570 5568 5567 5564 5562 5559 5557 5556
5552 5551 5550 5550 5550 5550 5551 5552 5553 5555 5556 5558 5559 5561 5561 5562 5564 5564 5566 5566 5567 5567 5567 5567 5567 5567 5566 5566 5566 5566 5566 5565 5565 5564 5562 5561 5560 5559 5557 5555 5552 5550 5548
5544 5543 5542 5542 5542 5542 5543 5544 5546 5547 5549 5551 5552 5553 5554 5554 5555 5556 5557 5558 5559 5559 5559 5559 5559 5559 5559 5558 5558 5558 5557 5557 5556 5555 5554 5553 5552 5550 5550 5549 5545 5543 5541
Wind_Speed
38 38 37 37 37 36 36 35 35 34 34 34 35 35 35 34 34 34 35 35 34 34 34 33 33 33 32 32 32 32 32 33 32 32 32 32 32 32 32 33 32 32 32
38 38 39 39 38 37 37 37 36 35 35 35 35 35 36 35 35 35 35 36 35 35 34 35 34 34 33 33 33 33 33 33 33 33 32 32 32 32 33 33 33 33 33
41 41 40 39 39 38 38 37 37 36 36 36 36 36 36 37 37 36 36 36 36 36 36 35 35 34 34 33 33 33 33 34 33 33 33 33 33 33 33 33 33 33 33
41 41 40 40 39 39 38 38 38 38 37 37 37 37 38 37 38 37 37 37 37 37 36 36 35 35 35 35 35 35 34 34 34 33 34 34 34 34 34 34 34 34 34
41 42 41 41 40 39 38 38 39 40 39 39 38 38 39 39 38 38 38 38 38 38 37 37 37 36 36 36 36 36 35 34 34 34 34 35 35 35 36 35 35 35 35
42 42 41 40 40 39 39 39 39 40 40 40 39 39 39 39 39 38 38 38 38 39 38 37 38 37 37 37 37 37 36 35 35 35 35 35 36 36 37 36 36 36 36
41 41 40 40 40 40 40 40 39 39 40 40 40 39 39 38 38 38 38 37 38 39 38 38 39 38 38 38 38 37 36 36 36 36 36 36 36 36 36 36 36 37 37
40 42 42 40 40 41 41 40 40 40 40 40 40 39 38 37 37 37 37 37 38 38 38 39 41 39 39 39 38 38 37 38 37 36 36 36 37 36 36 36 36 37 38
40 40 42 40 40 40 40 40 40 40 39 40 39 38 38 37 37 36 37 36 37 37 38 39 39 39 37 37 37 37 37 37 37 37 38 38 37 36 36 36 36 36 37
39 40 40 40 38 38 38 38 39 39 39 39 39 38 38 38 38 37 36 36 37 38 38 38 38 37 37 37 37 36 37 36 37 38 38 38 36 36 35 36 36 36 36
38 38 38 38 37 36 37 37 37 37 37 38 39 39 38 38 37 37 36 37 37 37 38 37 37 37 38 38 37 38 37 38 37 38 37 36 36 36 35 36 37 37 37
38 37 37 38 36 36 36 36 36 36 36 37 38 38 37 38 37 37 37 37 38 37 37 37 36 36 37 38 37 37 38 38 37 37 37 36 36 36 36 37 38 38 38
37 37 37 37 37 36 35 35 35 35 36 36 37 37 37 37 37 37 36 36 37 36 35 35 36 36 38 38 36 37 38 37 36 36 36 36 36 36 37 37 37 38 38
36 37 38 37 37 36 35 35 35 36 36 36 36 36 37 38 38 37 37 36 36 35 34 35 35 35 37 37 36 36 37 36 36 36 36 36 36 36 37 37 37 38 38
35 35 36 36 36 37 37 37 36 36 36 36 35 36 37 37 37 37 36 37 36 35 34 34 34 34 35 36 35 35 35 36 36 35 35 35 36 36 37 37 37 37 37
34 35 35 35 36 36 37 36 36 36 36 35 35 35 36 36 37 36 36 37 36 35 35 35 34 34 34 34 34 34 34 34 34 34 35 35 36 36 37 37 37 37 37
34 34 35 34 35 35 35 35 36 36 36 35 35 35 35 35 36 37 36 36 36 35 36 35 34 33 33 33 33 33 33 32 32 34 34 35 36 36 36 37 36 35 35
34 35 35 35 35 35 36 36 36 36 36 36 35 35 35 36 36 36 35 35 34 34 35 34 34 33 33 33 33 33 32 31 30 31 32 33 34 35 35 35 34 34 33
33 34 35 35 35 35 35 35 34 35 36 36 35 35 36 36 37 36 35 34 35 35 34 32 32 33 31 32 32 32 31 31 31 31 32 34 34 34 34 34 33 34 33
32 33 34 34 34 34 34 34 34 34 34 35 35 35 36 36 36 36 35 34 35 34 33 32 31 31 32 31 32 32 31 30 30 31 33 34 34 33 33 33 33 33 33
31 32 33 32 32 33 34 33 33 33 33 34 35 35 35 35 34 34 35 34 34 33 33 32 32 32 33 32 31 30 30 30 30 31 32 32 32 31 31 31 32 32 32
31 32 32 31 32 33 34 33 33 32 32 33 34 34 34 34 34 34 34 34 33 33 32 32 32 32 33 32 30 29 29 29 29 30 30 29 29 28 29 30 31 31 31
31 32 31 31 32 31 32 32 32 31 31 31 32 33 33 33 33 33 33 32 31 32 32 31 31 31 30 30 30 29 28 28 29 29 29 28 27 27 28 29 30 30 30
30 30 29 30 31 31 31 30 30 30 30 31 32 32 32 32 32 32 31 31 31 30 30 31 30 30 29 29 29 29 28 28 28 29 29 28 28 28 28 29 29 29 30
28 29 30 29 29 29 29 28 28 28 29 29 28 29 31 31 31 30 31 31 31 30 30 31 30 29 29 28 29 30 29 29 28 28 28 28 27 27 27 27 28 28 28
28 29 28 27 26 26 26 26 26 26 27 26 26 27 28 29 30 30 29 29 29 29 30 30 30 30 30 29 29 29 29 29 29 28 27 27 27 27 27 26 26 27 27
Wind_Direction
262 262 263 264 264 264 264 265 266 267 268 269 269 270 271 271 272 274 273 273 272 273 274 275 277 278 277 278 279 279 280 281 284 284 285 286 287 288 288 288 288 288 289
262 263 263 264 265 265 266 266 266 267 267 269 270 271 271 271 271 273 272 271 271 271 273 274 276 277 277 278 278 279 280 281 283 284 285 285 286 287 288 289 288 287 288
262 263 263 264 265 266 266 267 265 266 267 268 270 270 272 272 272 271 270 269 270 271 272 274 275 275 275 277 277 278 279 280 281 283 285 286 286 287 288 288 287 287 287
262 263 263 264 265 265 265 265 266 266 267 269 270 270 271 273 272 271 269 269 270 270 269 271 272 273 275 277 277 278 279 280 280 282 285 287 287 286 287 289 288 287 287
263 264 264 263 263 263 264 265 266 267 268 270 270 271 271 272 272 271 270 269 270 270 269 270 271 272 275 276 276 277 279 279 281 282 284 286 287 286 287 288 288 288 287
265 263 262 261 262 262 264 265 266 267 268 270 271 271 271 272 272 272 271 270 270 270 269 269 271 272 273 274 275 276 278 280 282 283 284 284 285 285 287 287 288 288 289
265 263 262 262 261 261 263 265 267 267 268 269 270 271 272 272 272 271 270 270 270 270 270 270 271 272 273 274 276 276 278 280 282 282 283 284 285 286 286 287 287 288 289
264 265 263 263 262 261 262 264 266 266 267 269 271 272 272 271 272 272 271 271 272 272 272 272 271 271 272 273 275 275 276 279 282 283 283 283 285 285 286 287 287 288 288
265 265 265 265 264 262 261 263 265 266 267 269 271 273 273 271 270 272 272 273 274 274 273 272 271 270 270 271 274 275 277 278 280 283 284 284 284 285 286 286 286 286 287
265 265 265 265 265 263 262 263 264 266 266 267 269 271 272 273 273 272 272 273 275 276 275 273 270 269 268 270 272 274 276 277 279 282 283 283 282 283 285 286 286 285 287
266 265 265 265 265 265 264 264 265 266 267 267 268 269 271 272 273 273 273 273 274 274 273 271 270 269 268 270 272 273 276 277 279 281 281 281 281 281 283 285 286 286 287
266 264 264 264 265 266 265 265 265 266 267 268 269 269 270 272 271 272 272 273 273 273 273 271 269 269 270 271 272 273 275 276 278 280 280 280 281 281 283 285 287 287 288
266 264 265 265 266 266 266 265 263 264 266 267 268 269 271 271 271 272 272 272 274 273 272 272 269 270 272 271 272 272 273 275 277 279 279 280 281 282 284 286 287 287 288
266 265 265 266 267 267 267 266 264 264 265 265 265 268 271 270 271 272 271 272 273 273 273 272 269 270 272 272 272 272 273 275 277 278 279 280 282 283 284 286 287 288 287
266 266 266 266 267 268 268 266 264 264 265 263 265 268 270 269 269 271 271 271 272 273 274 272 269 271 273 273 272 273 274 275 276 276 278 281 283 284 285 286 287 288 288
266 265 265 267 269 270 269 267 265 264 262 262 264 266 268 268 268 268 270 270 271 273 274 272 269 271 273 272 272 274 275 275 276 276 278 280 282 283 285 286 286 287 287
266 266 267 268 271 272 272 269 266 264 262 263 264 265 266 267 267 267 267 270 271 272 273 272 270 272 274 273 274 275 276 276 277 278 279 280 283 283 284 286 286 287 287
269 269 268 269 272 273 272 270 266 263 263 264 264 263 264 265 266 267 267 269 270 272 273 273 271 274 275 275 276 277 277 277 280 281 281 281 282 283 284 285 285 286 286
271 272 270 271 272 273 272 269 266 264 264 263 262 262 263 265 266 267 267 268 270 273 275 274 275 275 276 277 278 278 279 281 282 283 283 282 283 283 283 283 284 286 286
274 275 273 273 272 272 271 268 266 264 262 261 260 262 264 267 267 266 266 268 270 273 275 276 278 277 277 279 279 279 278 279 280 283 285 284 283 283 283 284 285 286 287
277 276 276 275 272 271 270 269 266 264 262 262 261 263 265 266 267 265 266 269 271 274 275 276 278 279 279 280 280 278 276 276 279 283 286 285 284 284 284 285 285 286 287
278 278 277 276 273 271 269 268 267 265 264 263 262 263 264 265 265 266 267 269 272 272 273 275 278 279 281 281 279 278 276 277 279 281 285 287 285 284 285 286 287 287 288
279 279 277 276 273 270 268 267 265 263 262 263 263 263 264 266 267 268 270 272 272 272 272 276 277 279 280 278 278 278 278 278 280 280 283 286 286 286 287 288 287 286 287
278 279 278 276 274 270 267 264 263 262 263 263 264 265 265 267 268 271 271 271 272 271 272 275 277 278 278 278 278 278 276 278 280 281 280 283 285 287 287 286 286 286 287
280 281 279 278 275 270 267 265 264 264 264 265 267 268 268 268 270 271 270 269 271 271 273 275 276 275 277 277 278 279 279 278 280 281 280 281 283 286 287 286 286 286 288
283 283 281 280 277 273 268 266 266 264 264 266 268 269 268 269 269 271 270 270 270 271 274 276 277 276 276 277 277 278 279 281 281 280 279 280 281 283 285 286 286 285 287